sat.trackr.live / text

‹ back to catalog

STARLINK-35413

NORAD 65886 · 2025-224E

PAYLOAD ACTIVE UNKNOWN

§ Identity

Operator
Country
US
Launch date
2025-10-07
Launch site
AFETR
Launch vehicle
Mass (kg)
RCS (m²)

Purposes: comms

External: N2YO · Heavens-Above · Gunter

§ Orbital elements

Epoch: 2026-05-25T01:33:35.279424Z

Period
93.85 min
Inclination
53.1593°
Eccentricity
0.0000966
Mean motion
15.34403273 rev/d
Perigee alt
462.0 km
Apogee alt
463.4 km
Semi-major
6,840.8 km
B*
7.3913e-4
RAAN
15.4644°
Arg perigee
84.9512°
Mean anomaly
275.1601°
Rev number
3,648

§ Raw data

STARLINK-354131 65886U 25224E   26145.06499166  .00024681  00000+0  73913-3 0  99932 65886  53.1593  15.4644 0000966  84.9512 275.1601 15.34403273 36480

JSON: /api/v1/satellites/65886 · /tle

For live sub-satellite position, see the globe view (requires WebGL).

§ Visibility from observer

Set your observer location to see the next 7 days of passes ≥ 10°. The values pass through the URL so the page stays shareable.

No JS? Fill the form by hand. The geolocation button needs JavaScript.